1496530800.47,23236,20.88,74064.0,3.05,-29.95,-30.23,0,*78
1496530801.7,23237,20.88,74066.0,3.01,-30.01,-30.33,0,*79
1496530802.95,23238,20.88,74066.3,3.01,-30.05,-30.39,0,*78
1496530804.18,23239,20.88,74066.5,3.01,-29.89,-30.23,0,*7E
1496530805.4,23240,20.88,74064.0,3.01,-30.01,-30.33,0,*79
1496530806.64,23241,20.88,74064.3,3.01,-29.89,-30.33,0,*70
1496530807.84,23242,20.88,74064.8,3.01,-29.83,-30.23,0,*78
1496530809.09,23243,20.88,74064.8,3.01,-30.05,-30.39,0,*74
1496530810.34,23244,20.88,74062.3,2.97,-30.01,-30.23,0,*72
1496530811.57,23245,20.88,74066.8,3.01,-29.89,-30.23,0,*75
1496530812.84,23246,20.88,74066.5,2.97,-30.05,-30.39,0,*7F
1496530814.07,23247,20.88,74066.8,3.01,-29.89,-30.33,0,*76
1496530815.3,23248,20.88,74066.5,3.01,-30.01,-30.33,0,*71
1496530816.53,23249,20.88,74062.5,3.01,-30.05,-30.33,0,*74
1496530817.78,23250,20.88,74066.3,2.97,-29.89,-30.23,0,*7F
1496530819.04,23251,20.88,74064.0,2.97,-30.05,-30.33,0,*73
1496530820.26,23252,20.88,74062.5,3.01,-30.01,-30.33,0,*7A
1496530821.52,23253,20.88,74064.0,2.97,-30.01,-30.33,0,*75
1496530822.74,23254,20.88,74064.3,3.01,-30.01,-30.33,0,*7C
1496530823.97,23255,20.88,74062.8,3.01,-29.89,-30.23,0,*74
1496530825.24,23256,20.88,74066.0,2.97,-29.89,-30.33,0,*78
1496530826.49,23257,20.88,74064.0,2.97,-30.01,-30.33,0,*71
1496530827.74,23258,20.88,74064.0,2.97,-30.05,-30.33,0,*7A
1496530829.0,23259,20.88,74066.5,2.97,-29.89,-30.23,0,*76
1496530830.26,23260,20.88,74060.8,2.97,-29.83,-30.05,0,*72
1496530831.5,23261,20.88,74062.5,3.01,-29.73,-30.05,0,*72
1496530832.76,23262,20.88,74064.3,2.97,-29.89,-30.23,0,*7E
1496530834.02,23263,20.88,74064.3,2.97,-29.89,-30.33,0,*7E
1496530835.28,23264,20.88,74066.8,2.97,-29.89,-30.23,0,*78
1496530836.54,23265,20.88,74062.0,2.97,-29.89,-30.23,0,*79
1496530837.8,23266,20.88,74064.3,2.97,-29.67,-30.05,0,*7E
1496530839.05,23267,20.88,74062.0,2.97,-29.67,-30.05,0,*7F
1496530840.28,23268,20.88,74060.3,3.01,-29.83,-30.17,0,*77
1496530841.54,23269,20.88,74066.5,2.97,-29.67,-30.05,0,*71
1496530842.82,23270,20.88,74064.5,2.97,-29.73,-30.17,0,*7F
1496530844.01,23271,20.88,74060.8,2.95,-29.79,-30.11,0,*70
1496530845.27,23272,20.88,74064.5,2.97,-29.83,-30.05,0,*71
1496530846.55,23273,20.88,74064.5,2.97,-29.73,-30.17,0,*7C
1496530847.83,23274,20.88,74066.5,2.97,-29.73,-30.17,0,*7B
1496530849.11,23275,20.88,74064.8,2.97,-29.73,-30.17,0,*7A
1496530850.37,23276,20.88,74066.0,2.97,-29.89,-30.23,0,*7B
1496530851.63,23277,20.88,74060.8,2.97,-29.89,-30.23,0,*7A
1496530852.88,23278,20.88,74064.0,2.97,-30.01,-30.33,0,*7C
1496530854.14,23279,20.88,74066.5,2.97,-30.05,-30.33,0,*79
1496530855.39,23280,20.88,74066.3,2.97,-30.05,-30.23,0,*7E
1496530856.61,23281,20.88,74064.0,2.95,-30.11,-30.39,0,*73
1496530857.85,23282,20.88,74062.8,2.95,-30.05,-30.39,0,*75
1496530859.07,23283,20.88,74066.3,2.95,-30.05,-30.27,0,*7B
1496530860.3,23284,20.88,74066.0,2.95,-29.89,-30.27,0,*70
1496530861.52,23285,20.88,74064.0,2.95,-30.11,-30.39,0,*77
1496530862.72,23286,20.88,74066.0,2.95,-29.95,-30.27,0,*7F
1496530863.95,23287,20.88,74060.0,2.95,-29.89,-30.23,0,*77
1496530865.17,23288,20.88,74060.0,2.93,-29.95,-30.23,0,*73
1496530866.4,23289,20.88,74062.0,2.93,-29.95,-30.27,0,*76
1496530867.62,23290,20.88,74060.3,2.95,-29.89,-30.11,0,*70
1496530868.82,23291,20.88,74062.8,2.95,-29.95,-30.11,0,*7C
1496530870.04,23292,20.88,74062.8,2.95,-29.89,-30.11,0,*72
1496530871.29,23293,20.88,74062.3,2.95,-29.73,-30.05,0,*73
1496530872.51,23294,20.88,74064.0,2.95,-29.73,-30.11,0,*71
1496530873.75,23295,20.88,74060.3,2.95,-29.73,-30.05,0,*75
1496530874.97,23296,20.88,74064.0,2.93,-29.79,-29.95,0,*7B
1496530876.22,23297,20.88,74064.3,2.93,-29.73,-29.95,0,*70
1496530877.47,23298,20.88,74060.0,2.97,-29.67,-30.01,0,*7B
1496530878.73,23299,20.88,74064.3,2.93,-29.89,-30.23,0,*7E
1496530879.97,23300,20.88,74062.3,2.95,-29.73,-30.05,0,*78
1496530881.2,23301,20.88,74062.0,2.95,-29.89,-30.23,0,*78
1496530882.45,23302,20.88,74060.0,2.93,-29.89,-30.23,0,*7D
1496530883.67,23303,20.88,74062.8,2.93,-29.95,-30.23,0,*71
1496530884.9,23304,20.88,74062.0,2.93,-29.95,-30.23,0,*76
1496530886.12,23305,20.88,74064.5,2.93,-29.79,-30.11,0,*74
1496530887.34,23306,20.88,74062.3,2.93,-29.95,-30.27,0,*70
1496530888.57,23307,20.88,74064.0,2.93,-29.95,-30.27,0,*71
1496530889.81,23308,20.88,74064.5,2.93,-30.11,-30.39,0,*75
1496530891.06,23309,20.88,74062.0,2.93,-30.11,-30.39,0,*74
1496530892.29,23310,20.88,74062.0,2.91,-30.27,-30.51,0,*75
1496530893.51,23311,20.88,74062.3,2.91,-30.11,-30.51,0,*71
1496530894.74,23312,20.88,74062.0,2.91,-30.17,-30.45,0,*71
1496530895.95,23313,20.88,74062.8,2.91,-30.27,-30.45,0,*73
1496530897.18,23314,20.88,74060.3,2.91,-30.17,-30.45,0,*77
1496530898.4,23315,20.88,74062.0,2.91,-30.01,-30.33,0,*70
1496530899.63,23316,20.88,74066.5,2.91,-30.01,-30.27,0,*76
1496530900.89,23317,20.88,74064.0,2.89,-29.89,-30.23,0,*72
1496530902.12,23318,20.88,74062.5,2.91,-29.79,-30.17,0,*7C
1496530903.38,23319,20.88,74060.8,2.89,-29.89,-30.23,0,*7C
1496530904.63,23320,20.88,74060.0,2.89,-30.01,-30.23,0,*7E
1496530905.92,23321,20.88,74060.3,2.89,-29.89,-30.17,0,*70
1496530907.15,23322,20.88,74062.5,2.91,-29.83,-30.17,0,*70
1496530908.36,23323,20.88,74066.0,2.91,-29.95,-30.27,0,*75
1496530909.61,23324,20.88,74062.8,2.89,-30.01,-30.33,0,*7B
1496530910.84,23325,20.88,74062.5,2.91,-30.01,-30.27,0,*76
1496530912.09,23326,20.88,74064.3,2.89,-30.01,-30.33,0,*79
1496530913.37,23327,20.88,74062.8,2.89,-30.17,-30.51,0,*7B
1496530914.62,23328,20.88,74060.0,2.89,-30.23,-30.51,0,*73
1496530915.9,23329,20.88,74060.3,2.89,-30.01,-30.39,0,*7C
1496530917.13,23330,20.88,74060.8,2.89,-29.83,-30.23,0,*7D
1496530918.41,23331,20.88,74066.3,2.89,-29.89,-30.05,0,*72
1496530919.64,23332,20.88,74060.8,2.87,-29.83,-30.05,0,*75
1496530920.84,23333,20.88,74064.8,2.87,-29.83,-30.23,0,*70
1496530922.08,23334,20.88,74064.5,2.87,-29.83,-30.17,0,*70
1496530923.31,23335,20.88,74062.3,2.89,-29.79,-29.83,0,*7F
1496530924.56,23336,20.88,74060.3,2.89,-29.79,-30.05,0,*7A
1496530925.82,23337,20.88,74062.5,2.89,-29.79,-29.89,0,*77
1496530927.05,23338,20.88,74062.0,2.91,-29.73,-29.83,0,*71
1496530928.31,23339,20.88,74060.0,2.89,-29.79,-29.89,0,*79
1496530929.56,23340,20.88,74060.5,2.89,-29.79,-30.05,0,*7B
1496530930.81,23341,20.88,74062.5,2.89,-29.79,-30.05,0,*7A
1496530932.04,23342,20.88,74062.0,2.89,-29.79,-29.83,0,*7F
1496530933.29,23343,20.88,74060.0,2.89,-29.79,-30.05,0,*78
1496530934.52,23344,20.88,74056.0,2.91,-29.73,-29.83,0,*7A
1496530935.78,23345,20.88,74060.3,2.89,-29.79,-29.89,0,*72
1496530937.03,23346,20.88,74062.0,2.89,-29.79,-29.89,0,*71
1496530938.3,23347,20.88,74060.3,2.89,-29.83,-30.17,0,*7A
1496530939.53,23348,20.88,74060.8,2.89,-29.61,-29.83,0,*7C
1496530940.77,23349,20.88,74062.0,2.89,-29.83,-29.83,0,*71
1496530942.0,23350,20.88,74062.5,2.89,-29.67,-29.83,0,*73
1496530943.23,23351,20.88,74060.0,2.89,-29.67,-29.83,0,*72
1496530944.46,23352,20.88,74062.0,2.91,-29.73,-29.83,0,*7D
1496530945.69,23353,20.88,74058.5,2.89,-29.79,-29.83,0,*7F
1496530946.92,23354,20.88,74062.5,2.91,-29.73,-29.83,0,*7B
1496530948.18,23355,20.88,74062.0,2.89,-29.83,-30.17,0,*79
1496530949.41,23356,20.88,74062.8,2.91,-29.73,-29.83,0,*79
1496530950.67,23357,20.88,74058.5,2.89,-29.67,-29.89,0,*7E
1496530951.93,23358,20.88,74060.0,2.89,-29.89,-30.23,0,*79
1496530953.18,23359,20.88,74062.3,2.89,-29.79,-30.05,0,*73
1496530954.43,23360,20.88,74062.8,2.93,-29.57,-29.73,0,*77
1496530955.7,23361,20.88,74064.0,2.89,-29.83,-30.17,0,*7E
1496530956.92,23362,20.88,74060.0,2.93,-29.67,-29.79,0,*7C
1496530958.14,23363,20.88,74064.3,2.91,-29.73,-29.79,0,*7A
1496530959.39,23364,20.88,74062.5,2.91,-29.73,-30.01,0,*7A
1496530960.62,23365,20.88,74060.3,2.89,-29.67,-29.83,0,*75
1496530961.85,23366,20.88,74060.0,2.89,-29.67,-29.79,0,*73
1496530963.06,23367,20.88,74062.3,2.91,-29.61,-29.83,0,*78
1496530964.31,23368,20.88,74066.0,2.89,-29.79,-30.05,0,*71
1496530965.56,23369,20.88,74060.0,2.91,-29.73,-30.01,0,*77
1496530966.81,23370,20.88,74060.8,2.89,-29.79,-30.05,0,*78
1496530968.02,23371,20.88,74060.8,2.91,-29.61,-29.83,0,*7F
1496530969.25,23372,20.88,74064.3,2.91,-29.79,-30.17,0,*70
1496530970.51,23373,20.88,74064.0,2.89,-29.79,-29.89,0,*77
1496530971.74,23374,20.88,74062.3,2.89,-29.67,-29.83,0,*75
1496530972.98,23375,20.88,74062.8,2.89,-29.61,-29.83,0,*72
1496530974.18,23376,20.88,74066.5,2.91,-29.57,-29.79,0,*78
1496530975.39,23377,20.88,74062.3,2.91,-29.61,-29.83,0,*79
1496530976.62,23378,20.88,74062.5,2.89,-29.67,-29.83,0,*79
1496530977.82,23379,20.88,74060.8,2.91,-29.57,-29.79,0,*77
1496530979.08,23380,20.88,74060.8,2.89,-29.79,-29.89,0,*7B
1496530980.33,23381,20.88,74060.8,2.93,-29.79,-29.89,0,*71
1496530981.59,23382,20.88,74062.3,2.89,-29.79,-29.89,0,*79
1496530982.85,23383,20.88,74060.5,2.89,-29.79,-29.89,0,*78
1496530984.05,23384,20.88,74062.5,2.91,-29.57,-29.83,0,*70
1496530985.27,23385,20.88,74062.0,2.91,-29.73,-29.79,0,*72
1496530986.53,23386,20.88,74060.0,2.89,-29.79,-30.05,0,*71
1496530987.73,23387,20.88,74060.8,2.91,-29.79,-30.11,0,*7C
1496530988.98,23388,20.88,74060.3,2.91,-29.73,-30.01,0,*78
1496530990.23,23389,20.88,74062.5,2.89,-29.79,-30.05,0,*7E
1496530991.48,23390,20.88,74064.0,2.91,-29.73,-30.17,0,*76
1496530992.74,23391,20.88,74062.0,2.89,-29.83,-30.05,0,*72
1496530993.97,23392,20.88,74060.0,2.91,-29.73,-29.83,0,*71
1496530995.22,23393,20.88,74060.3,2.89,-29.79,-30.05,0,*75
1496530996.48,23394,20.88,74060.5,2.89,-29.67,-29.89,0,*71
1496530997.74,23395,20.88,74062.5,2.89,-29.79,-29.89,0,*7F
1496530998.99,23396,20.88,74064.5,2.89,-29.79,-30.01,0,*74
1496531000.25,23397,20.88,74062.0,2.89,-29.79,-30.05,0,*71
1496531001.48,23398,20.88,74062.3,2.91,-29.83,-30.17,0,*71
1496531002.71,23399,20.88,74060.3,2.91,-29.79,-30.01,0,*72
1496531003.97,23400,20.88,74062.8,2.89,-29.83,-30.17,0,*7E
1496531005.23,23401,20.88,74064.3,2.89,-29.89,-30.23,0,*72
1496531006.46,23402,20.88,74062.5,2.89,-29.79,-30.11,0,*7F
1496531007.71,23403,20.81,74062.3,2.89,-29.67,-30.05,0,*74
1496531008.96,23404,20.88,74060.5,2.89,-29.79,-30.05,0,*7C
1496531010.23,23405,20.88,74064.3,2.89,-29.83,-30.17,0,*7B
1496531011.43,23406,20.88,74062.8,2.91,-29.83,-30.23,0,*76
1496531012.69,23407,20.88,74066.5,2.89,-29.83,-30.05,0,*7A
1496531013.94,23408,20.88,74064.0,2.91,-29.73,-30.01,0,*77
1496531015.17,23409,20.88,74060.8,2.89,-29.83,-30.23,0,*70
1496531016.43,23410,20.88,74062.5,2.89,-29.89,-30.23,0,*72
1496531017.67,23411,20.88,74062.0,2.89,-29.83,-30.33,0,*78
1496531018.93,23412,20.88,74064.3,2.89,-29.67,-30.05,0,*74
1496531020.16,23413,20.88,74064.3,2.89,-29.83,-30.23,0,*7B
1496531021.42,23414,20.88,74066.0,2.89,-29.83,-30.17,0,*7B
1496531022.65,23415,20.88,74062.8,2.89,-29.83,-30.23,0,*7D
1496531023.86,23416,20.88,74060.3,2.87,-29.83,-30.23,0,*70
1496531025.1,23417,20.88,74064.3,2.87,-29.89,-30.33,0,*7A
1496531026.33,23418,20.88,74064.5,2.87,-29.89,-30.23,0,*74
1496531027.58,23419,20.88,74062.8,2.89,-29.89,-30.23,0,*7B
1496531028.82,23420,20.88,74060.8,2.87,-29.83,-30.17,0,*72
1496531030.08,23421,20.88,74060.8,2.87,-29.89,-30.17,0,*79
1496531031.34,23422,20.88,74062.0,2.87,-29.89,-30.17,0,*7A
1496531032.58,23423,20.88,74062.8,2.87,-29.79,-30.17,0,*74
1496531033.84,23424,20.88,74062.5,2.87,-29.89,-30.17,0,*7C
1496531035.09,23425,20.88,74062.3,2.85,-29.89,-30.23,0,*78
1496531036.33,23426,20.81,74060.0,2.87,-29.79,-30.17,0,*71
1496531037.56,23427,20.88,74066.5,2.85,-29.95,-30.23,0,*77
1496531038.82,23428,20.81,74062.3,2.85,-29.89,-30.23,0,*75
1496531040.09,23429,20.88,74060.5,2.85,-30.05,-30.39,0,*73
1496531041.34,23430,20.88,74064.0,2.85,-30.05,-30.27,0,*74
1496531042.59,23431,20.88,74060.8,2.87,-30.01,-30.17,0,*70
1496531043.85,23432,20.88,74060.0,2.85,-29.89,-30.23,0,*7E
1496531045.09,23433,20.81,74062.0,2.87,-29.83,-30.17,0,*70
1496531046.34,23434,20.88,74062.8,2.85,-29.89,-30.23,0,*78
1496531047.58,23435,20.81,74058.8,2.87,-29.83,-30.17,0,*76
1496531048.81,23436,20.81,74062.0,2.85,-29.95,-30.11,0,*76
1496531050.04,23437,20.81,74056.8,2.85,-29.95,-30.11,0,*77
1496531051.29,23438,20.88,74060.5,2.85,-29.95,-30.05,0,*7D
1496531052.52,23439,20.88,74060.8,2.85,-29.95,-30.11,0,*79
1496531053.75,23440,20.81,74058.8,2.85,-29.95,-30.27,0,*72
1496531055.01,23441,20.88,74060.8,2.85,-29.89,-30.11,0,*7B
1496531056.26,23442,20.88,74064.3,2.85,-29.89,-30.11,0,*78
1496531057.52,23443,20.88,74060.5,2.85,-29.89,-29.95,0,*7D
1496531058.77,23444,20.88,74060.8,2.85,-29.89,-30.11,0,*7E
1496531059.98,23445,20.88,74064.5,2.83,-29.83,-29.95,0,*77
1496531061.24,23446,20.88,74060.0,2.85,-29.89,-30.23,0,*7D
1496531062.49,23447,20.88,74060.5,2.85,-29.89,-30.11,0,*7D
1496531063.72,23448,20.88,74060.8,2.83,-29.89,-30.11,0,*74
1496531064.95,23449,20.88,74062.8,2.83,-29.89,-30.11,0,*75
1496531066.18,23450,20.88,74062.0,2.83,-29.89,-30.11,0,*7D
1496531067.4,23451,20.88,74062.0,2.83,-29.73,-29.95,0,*7D
1496531068.69,23452,20.81,74058.3,2.81,-29.89,-30.17,0,*7B
1496531069.9,23453,20.81,74058.0,2.83,-29.83,-30.23,0,*75
1496531071.16,23454,20.88,74060.3,2.81,-29.79,-30.17,0,*72
1496531072.42,23455,20.81,74058.8,2.81,-29.79,-30.01,0,*74
1496531073.65,23456,20.88,74062.8,2.81,-29.79,-29.95,0,*72
1496531074.87,23457,20.88,74060.3,2.83,-29.73,-29.95,0,*7B
1496531076.14,23458,20.81,74058.5,2.83,-29.89,-29.89,0,*7C
1496531077.34,23459,20.88,74062.5,2.83,-29.83,-29.95,0,*7A
1496531078.58,23460,20.81,74060.3,2.83,-29.67,-29.89,0,*77
1496531079.86,23461,20.88,74062.8,2.81,-29.73,-30.01,0,*79
1496531081.15,23462,20.88,74062.8,2.81,-29.89,-30.17,0,*78
1496531082.4,23463,20.88,74060.5,2.83,-29.73,-29.89,0,*71
1496531083.63,23464,20.88,74062.0,2.83,-29.73,-29.95,0,*7B
1496531084.83,23465,20.88,74060.8,2.83,-29.67,-29.95,0,*7F
1496531086.09,23466,20.88,74062.8,2.83,-29.73,-29.89,0,*74
1496531087.31,23467,20.81,74056.5,2.83,-29.73,-29.95,0,*78
1496531088.53,23468,20.81,74060.3,2.83,-29.73,-30.11,0,*73
1496531089.74,23469,20.81,74060.3,2.83,-29.83,-30.23,0,*7C
1496531091.0,23470,20.81,74058.0,2.81,-29.79,-30.01,0,*73
1496531092.21,23471,20.81,74060.0,2.83,-29.83,-30.23,0,*75
1496531093.43,23472,20.81,74060.5,2.83,-29.73,-30.11,0,*78
1496531094.63,23473,20.88,74062.8,2.83,-29.83,-30.23,0,*77
1496531095.9,23474,20.88,74064.3,2.81,-29.89,-30.27,0,*7C
1496531097.16,23475,20.88,74060.8,2.81,-29.89,-30.27,0,*7D
1496531098.42,23476,20.81,74060.8,2.81,-29.95,-30.17,0,*70
1496531099.65,23477,20.81,74058.8,2.83,-29.89,-30.23,0,*79
1496531100.92,23478,20.81,74060.3,2.81,-29.95,-30.01,0,*79
1496531102.18,23479,20.81,74060.8,2.81,-29.95,-30.17,0,*7F
1496531103.44,23480,20.81,74058.5,2.81,-29.79,-30.17,0,*7B
1496531104.65,23481,20.88,74060.0,2.83,-29.83,-30.23,0,*7A
1496531105.91,23482,20.81,74060.8,2.81,-29.89,-29.95,0,*74
1496531107.17,23483,20.88,74062.0,2.81,-29.89,-29.95,0,*75
1496531108.43,23484,20.81,74060.0,2.81,-29.89,-30.27,0,*73
1496531109.7,23485,20.88,74064.3,2.81,-29.95,-30.17,0,*7C
1496531110.99,23486,20.81,74062.8,2.81,-29.89,-30.17,0,*72
1496531112.25,23487,20.81,74062.5,2.81,-29.89,-30.27,0,*70
1496531113.51,23488,20.88,74062.5,2.81,-30.01,-30.27,0,*77
1496531114.8,23489,20.88,74062.0,2.81,-29.89,-30.17,0,*7D
1496531116.09,23490,20.88,74060.3,2.81,-29.89,-30.01,0,*72
1496531117.35,23491,20.81,74062.3,2.79,-29.89,-30.01,0,*74
1496531118.61,23492,20.81,74062.0,2.81,-29.89,-30.27,0,*74
1496531119.85,23493,20.81,74058.3,2.81,-29.95,-30.33,0,*7D
1496531121.14,23494,20.88,74062.8,2.81,-29.89,-30.17,0,*71
1496531122.43,23495,20.81,74062.8,2.81,-29.89,-30.01,0,*77
1496531123.69,23496,20.81,74062.3,2.81,-29.79,-30.01,0,*7B
1496531124.95,23497,20.81,74058.3,2.81,-29.79,-30.17,0,*7D
1496531126.17,23498,20.81,74062.8,2.79,-29.73,-29.95,0,*7D
1496531127.4,23499,20.88,74060.3,2.79,-29.73,-29.95,0,*7C
1496531128.66,23500,20.88,74060.5,2.79,-29.89,-30.01,0,*7D
1496531129.89,23501,20.81,74060.3,2.79,-29.79,-30.01,0,*73
1496531131.13,23502,20.88,74060.8,2.79,-29.79,-30.17,0,*77
1496531132.39,23503,20.81,74062.0,2.81,-29.79,-30.17,0,*71
1496531133.62,23504,20.81,74062.8,2.79,-29.79,-30.01,0,*76
1496531134.88,23505,20.88,74062.0,2.79,-29.89,-30.17,0,*7F
1496531136.12,23506,20.81,74060.8,2.75,-29.83,-30.05,0,*79
1496531137.35,23507,20.88,74062.3,2.75,-29.79,-30.01,0,*79
1496531138.59,23508,20.88,74060.5,2.79,-29.61,-29.89,0,*7B
1496531139.81,23509,20.81,74062.3,2.79,-29.73,-29.79,0,*76
1496531141.01,23510,20.81,74062.0,2.79,-29.79,-29.95,0,*76
1496531142.27,23511,20.81,74062.0,2.79,-29.73,-30.01,0,*78
1496531143.53,23512,20.81,74060.3,2.79,-29.89,-30.01,0,*7E
1496531144.79,23513,20.81,74060.3,2.79,-29.89,-30.17,0,*78
1496531146.02,23514,20.88,74062.5,2.79,-29.95,-30.05,0,*71
1496531147.23,23515,20.81,74058.8,2.79,-29.95,-30.27,0,*70
1496531148.44,23516,20.81,74056.0,2.79,-29.95,-30.27,0,*73
1496531149.68,23517,20.81,74062.5,2.75,-29.83,-30.01,0,*7D
1496531150.88,23518,20.81,74058.5,2.79,-29.61,-29.79,0,*75
1496531152.08,23519,20.81,74062.0,2.75,-29.79,-29.95,0,*73
1496531153.31,23520,20.88,74062.3,2.75,-29.79,-30.01,0,*7C
1496531154.52,23521,20.88,74062.5,2.79,-29.57,-29.79,0,*7A
1496531155.74,23522,20.81,74060.3,2.79,-29.73,-29.79,0,*7F
1496531157.0,23523,20.81,74056.8,2.79,-29.73,-29.89,0,*71
1496531158.22,23524,20.81,74058.0,2.79,-29.73,-29.95,0,*7B
1496531159.43,23525,20.81,74056.3,2.79,-29.79,-29.95,0,*70
1496531160.64,23526,20.81,74056.3,2.75,-29.83,-29.95,0,*7A
1496531161.84,23527,20.81,74056.8,2.79,-29.79,-29.95,0,*72
1496531163.07,23528,20.81,74058.3,2.79,-29.79,-29.89,0,*70
1496531164.28,23529,20.81,74062.0,2.75,-29.79,-29.95,0,*70
1496531165.5,23530,20.81,74060.3,2.79,-29.73,-29.95,0,*7E
1496531166.76,23531,20.81,74062.0,2.79,-29.73,-29.89,0,*72
1496531167.99,23532,20.81,74060.3,2.79,-29.61,-29.89,0,*72
1496531169.21,23533,20.88,74060.3,2.75,-29.67,-29.83,0,*73
1496531170.43,23534,20.81,74058.8,2.79,-29.73,-29.79,0,*78
1496531171.69,23535,20.81,74058.5,2.79,-29.89,-30.01,0,*7B
1496531172.95,23536,20.81,74056.0,2.79,-29.89,-30.17,0,*7F
1496531174.16,23537,20.81,74060.0,2.75,-29.83,-29.95,0,*7A
1496531175.4,23538,20.81,74058.5,2.79,-29.57,-29.73,0,*78
1496531176.6,23539,20.81,74060.8,2.75,-29.67,-29.95,0,*7E
1496531177.86,23540,20.81,74056.3,2.79,-29.89,-30.01,0,*79
1496531179.1,23541,20.81,74058.8,2.75,-29.83,-30.17,0,*79
1496531180.34,23542,20.81,74060.3,2.75,-29.95,-30.01,0,*7A
1496531181.6,23543,20.81,74056.3,2.79,-29.89,-30.01,0,*7A
1496531182.8,23544,20.81,74056.8,2.79,-29.61,-29.79,0,*7C
1496531184.01,23545,20.88,74060.8,2.79,-29.57,-29.79,0,*78
1496531185.24,23546,20.81,74060.3,2.79,-29.79,-29.89,0,*78
1496531186.47,23547,20.81,74058.5,2.75,-29.95,-30.05,0,*7B
1496531187.7,23548,20.81,74058.3,2.79,-29.79,-30.01,0,*7E
1496531188.91,23549,20.81,74058.0,2.79,-29.95,-30.27,0,*79
1496531190.15,23550,20.88,74062.5,2.79,-29.79,-30.17,0,*70
1496531191.41,23551,20.81,74056.8,2.79,-29.89,-30.01,0,*79
1496531192.67,23552,20.81,74056.8,2.79,-29.89,-30.17,0,*7D
1496531193.93,23553,20.81,74058.3,2.79,-29.73,-29.89,0,*76
1496531195.13,23554,20.81,74056.8,2.79,-29.57,-29.79,0,*78
1496531196.37,23555,20.81,74054.5,2.79,-29.57,-29.73,0,*73
1496531197.6,23556,20.81,74058.3,2.75,-29.73,-29.83,0,*75
1496531198.8,23557,20.81,74056.0,2.79,-29.61,-29.61,0,*77
1496531200.03,23558,20.81,74058.5,2.79,-29.45,-29.73,0,*7D
1496531201.24,23559,20.81,74056.3,2.79,-29.45,-29.61,0,*7F
1496531202.47,23560,20.81,74058.0,2.75,-29.51,-29.79,0,*75
1496531203.68,23561,20.81,74056.5,2.75,-29.61,-29.79,0,*77
1496531204.88,23562,20.81,74056.8,2.79,-29.23,-29.57,0,*72
1496531206.12,23563,20.81,74056.3,2.75,-29.35,-29.61,0,*7D
1496531207.35,23564,20.81,74056.0,2.79,-29.13,-29.45,0,*74
1496531208.58,23565,20.81,74058.5,2.79,-29.29,-29.57,0,*7F
1496531209.81,23566,20.81,74056.0,2.79,-29.39,-29.61,0,*78
1496531211.05,23567,20.81,74058.8,2.79,-29.39,-29.57,0,*7C
1496531212.28,23568,20.81,74056.0,2.79,-29.13,-29.57,0,*7B
1496531213.51,23569,20.81,74056.3,2.79,-29.29,-29.45,0,*70
1496531214.77,23570,20.81,74056.3,2.81,-29.57,-29.73,0,*73
1496531216.0,23571,20.81,74058.3,2.81,-29.57,-29.61,0,*71
1496531217.27,23572,20.81,74056.8,2.81,-29.39,-29.61,0,*7A
1496531218.52,23573,20.81,74058.5,2.81,-29.45,-29.73,0,*73
1496531219.76,23574,20.81,74056.0,2.83,-29.39,-29.57,0,*7B
1496531221.02,23575,20.81,74054.0,2.81,-29.57,-29.73,0,*76
1496531222.25,23576,20.81,74058.5,2.81,-29.57,-29.61,0,*76
1496531223.49,23577,20.81,74058.0,2.81,-29.45,-29.61,0,*74
1496531224.74,23578,20.81,74056.3,2.81,-29.29,-29.45,0,*77
1496531226.0,23579,20.81,74056.5,2.81,-29.29,-29.45,0,*76
1496531227.23,23580,20.81,74058.8,2.83,-29.23,-29.39,0,*73
1496531228.43,23581,20.81,74056.0,2.83,-29.23,-29.57,0,*7A
1496531229.68,23582,20.81,74060.0,2.83,-29.17,-29.35,0,*7A
1496531230.92,23583,20.81,74052.3,2.83,-29.23,-29.51,0,*7E
1496531232.17,23584,20.81,74056.3,2.81,-29.29,-29.45,0,*74
1496531233.4,23585,20.81,74056.3,2.83,-29.23,-29.39,0,*76
1496531234.68,23586,20.81,74058.5,2.85,-29.17,-29.35,0,*78
1496531235.93,23587,20.81,74056.3,2.83,-29.17,-29.51,0,*7D
1496531237.16,23588,20.81,74058.8,2.83,-29.23,-29.39,0,*7B
1496531238.41,23589,20.81,74056.3,2.83,-29.17,-29.39,0,*7D
1496531239.66,23590,20.81,74058.5,2.85,-29.07,-29.35,0,*7E
1496531240.91,23591,20.81,74058.5,2.85,-29.07,-29.39,0,*73
1496531242.17,23592,20.81,74056.8,2.85,-29.23,-29.51,0,*78
1496531243.41,23593,20.81,74056.3,2.83,-29.35,-29.57,0,*7E
1496531244.66,23594,20.81,74058.5,2.85,-29.23,-29.51,0,*7E
1496531245.89,23595,20.81,74056.0,2.87,-29.13,-29.45,0,*7B
1496531247.15,23596,20.81,74054.0,2.87,-29.35,-29.51,0,*79
1496531248.38,23597,20.81,74058.8,2.87,-29.17,-29.45,0,*7D
1496531249.64,23598,20.81,74056.0,2.85,-29.39,-29.57,0,*7F
1496531250.87,23599,20.81,74060.3,2.85,-29.23,-29.57,0,*75
1496531252.13,23600,20.81,74056.3,2.85,-29.39,-29.57,0,*7D
1496531253.39,23601,20.81,74058.8,2.87,-29.35,-29.51,0,*74
1496531254.62,23602,20.81,74058.0,2.87,-29.29,-29.45,0,*7F
1496531255.88,23603,20.81,74060.3,2.85,-29.39,-29.57,0,*7E
1496531257.14,23604,20.81,74056.0,2.85,-29.35,-29.57,0,*75
1496531258.38,23605,20.81,74058.8,2.85,-29.57,-29.83,0,*79
1496531259.64,23606,20.81,74054.8,2.85,-29.57,-29.73,0,*75
1496531260.84,23607,20.81,74058.5,2.87,-29.61,-29.83,0,*7C
1496531262.1,23608,20.81,74056.5,2.85,-29.57,-29.73,0,*7B
1496531263.33,23609,20.81,74058.8,2.85,-29.57,-29.83,0,*75
1496531264.6,23610,20.81,74058.3,2.85,-29.39,-29.57,0,*7C
1496531265.86,23611,20.81,74056.3,2.85,-29.51,-29.67,0,*70
1496531267.12,23612,20.81,74058.8,2.85,-29.51,-29.67,0,*73
1496531268.33,23613,20.81,74058.8,2.87,-29.61,-29.83,0,*79
1496531269.56,23614,20.81,74056.8,2.85,-29.67,-29.83,0,*7A
1496531270.82,23615,20.81,74056.8,2.85,-29.67,-29.73,0,*74
1496531272.05,23616,20.81,74058.8,2.87,-29.51,-29.61,0,*73
1496531273.31,23617,20.81,74062.0,2.87,-29.35,-29.51,0,*73
1496531274.54,23618,20.81,74058.8,2.89,-29.45,-29.61,0,*76
1496531275.75,23619,20.81,74060.3,2.87,-29.45,-29.61,0,*79
1496531276.98,23620,20.81,74056.8,2.87,-29.51,-29.61,0,*76
1496531278.21,23621,20.81,74058.8,2.87,-29.35,-29.67,0,*73
1496531279.47,23622,20.81,74056.5,2.89,-29.51,-29.79,0,*73
1496531280.7,23623,20.81,74056.0,2.87,-29.51,-29.79,0,*7C
1496531281.93,23624,20.81,74056.0,2.87,-29.57,-29.73,0,*77
1496531283.19,23625,20.81,74056.8,2.85,-29.57,-29.73,0,*74
1496531284.47,23626,20.81,74056.0,2.85,-29.51,-29.73,0,*71
1496531285.7,23627,20.81,74054.5,2.87,-29.45,-29.51,0,*77
1496531286.94,23628,20.81,74054.5,2.87,-29.39,-29.67,0,*76
1496531288.14,23629,20.81,74058.8,2.87,-29.61,-29.79,0,*75
1496531289.34,23630,20.81,74058.8,2.87,-29.61,-29.79,0,*7D
1496531290.53,23631,20.81,74058.8,2.87,-29.61,-29.79,0,*7C
1496531291.79,23632,20.81,74060.5,2.85,-29.57,-29.73,0,*72
1496531293.05,23633,20.81,74056.8,2.85,-29.39,-29.57,0,*7D
1496531294.28,23634,20.81,74056.0,2.87,-29.39,-29.61,0,*7D
1496531295.52,23635,20.81,74056.0,2.87,-29.35,-29.61,0,*70
1496531296.74,23636,20.81,74058.5,2.89,-29.61,-29.79,0,*75
1496531297.97,23637,20.81,74060.8,2.87,-29.51,-29.79,0,*79
1496531299.23,23638,20.81,74058.0,2.85,-29.51,-29.67,0,*7B
1496531300.49,23639,20.81,74058.0,2.85,-29.57,-29.73,0,*79
1496531301.75,23640,20.81,74052.5,2.85,-29.39,-29.57,0,*79
1496531302.99,23641,20.81,74054.3,2.89,-29.45,-29.83,0,*76
1496531304.22,23642,20.81,74056.0,2.87,-29.51,-29.67,0,*74